www.pogodaiklimat.ru

Погода и климат >> Архив погоды >> Украина >> Тетерев


ПОГОДА в Тетереве

  • Прогноз погоды в Тетереве
  • Монитор погоды в Тетереве

АРХИВ ПОГОДЫ в Тетереве

Время (UTC), дата Ветер
(напр.,м/с)
 
Видим.   Явления Облачность Т
(С)
Тd
(С)
f
(%)
Тe
(С)
Тes
(С)
Комфортность P
(гПа)
Po
(гПа)
Тmin
(С)
Tmax
(С)
R
(мм)
R24
(мм)
S
(см)
15 12.08 ЮВ 2 10 км 3/3 1000 м
[Cu hum]
+29.5 +16.3 45 +33 +35 душно 1016.0 1001.0
18 12.08 штиль 0 10 км 1/0
[Ci fib]
+25.9 +18.3 63 +31 +31 очень
душно
1016.0 1000.9 +30.6
21 12.08 ЮВ 2 10 км 3/0
[Ci fib]
+22.8 +14.6 60 +26 +26 жарко 1015.0 999.7
00 13.08 ЮВ 1 10 км 5/0
[Ci fib]
+20.2 +15.0 72 +24 +24 комфорт 1015.0 999.6
03 13.08 В 2 10 км 5/0 2000 м
[Ac cast Ci fib]
+20.1 +15.5 75 +23 +23 комфорт 1013.0 997.6
06 13.08 ЮВ 1 10 км ясно +25.2 +16.6 59 +29 +35 душно 1013.0 997.9 +20.1
09 13.08 Ю 1 10 км ясно +31.0 +17.3 44 +35 +51 опасность
солнечного
удара
1011.0 996.2
12 13.08 З 2 10 км 8/4 1000 м
[Cb calv Cs]
+33.8 +19.4 43 +39 +39 очень
душно
1010.0 995.4
15 13.08 З 3 10 км 8/4 1000 м
[Cb calv Ci ing]
+33.6 +18.5 41 +38 +38 очень
душно
1009.0 994.4
18 13.08 З 2 10 км 8/4 1000 м
[Sc Ac trans Ci fib]
+28.4 +20.7 63 +35 +35 очень
душно
1012.0 997.1 +35.1
21 13.08 СЗ 1 10 км гроза без осадков 10/10 800 м
[Cb calv]
+24.1 +20.2 79 +30 +30 очень
душно
1014.0 998.8
00 14.08 ЮЗ 1 4000 м в посл. час гроза {ливн. осадки} 9/6 600 м
[Cb cap Ac und]
+20.2 +18.3 89 +25 +25 комфорт 1014.0 998.6 1
03 14.08 С 1 4000 м дымка 4/3 1000 м
[Sc Ac trans]
+19.4 +18.1 92 +23 +23 комфорт 1013.0 997.6
06 14.08 ЮВ 2 10 км 8/5 1000 м
[St Ac und]
+22.0 +18.8 82 +27 +27 душно 1013.0 997.7 +19.4 1
09 14.08 В 2 10 км 9/6 1000 м
[Cu med, cong Ci fib]
+26.2 +20.1 69 +32 +32 очень
душно
1012.0 997.0
12 14.08 ЮВ 2 10 км 10/8 1000 м
[Cu med, cong Ci fib]
+30.8 +21.3 57 +39 +39 очень
душно
1009.0 994.3
15 14.08 Ю 3 10 км 9/3 1000 м
[Cu med, cong Cs]
+31.0 +14.2 36 +33 +33 душно 1007.0 992.2
18 14.08 штиль 0 10 км 8/0
[Cs]
+25.3 +17.2 61 +29 +29 душно 1007.0 992.0 +32.5
21 14.08 СЗ 1 10 км ясно +22.0 +16.7 72 +26 +26 душно 1008.0 992.8
00 15.08 З 3 10 км 10/10 800 м
[Sc]
+18.4 +15.1 81 +19 +19 1010.0 994.6
03 15.08 СЗ 3 10 км 10/10 630 м
[Sc]
+15.5 +12.6 83 +15 +15 1012.0 996.4
06 15.08 СЗ 3 10 км 10/10 660 м
[Sc]
+15.8 +12.0 78 +15 +15 1013.0 997.4 +15.5
09 15.08 З 4 10 км 10/10 1000 м
[Sc]
+17.4 +11.7 69 +17 +17 1013.0 997.4
12 15.08 СЗ 3 10 км 9/9 1110 м
[Sc]
+19.0 +11.8 63 +20 +20 1013.0 997.5
15 15.08 З 4 10 км 10/0 2000 м
[Ac und]
+17.2 +12.1 72 +17 +17 1013.0 997.4
18 15.08 СЗ 2 10 км 10/10 660 м
[Sc]
+15.2 +11.0 76 +15 +15 1014.0 998.3 +20.6
21 15.08 СВ 2 4000 м слаб. ливневой дождь 10/10 720 м
[Cb cap]
+14.2 +12.2 88 +14 +14 1014.0 998.3
00 16.08 СЗ 2 10 км {ливн. осадки} 10/0 2000 м
[Ac und]
+13.8 +11.0 83 +13 +13 1014.0 998.2 6
03 16.08 СЗ 2 4000 м слаб. ливневой дождь 10/8 800 м
[Cb cap Ac und]
+13.0 +10.9 87 +12 +12 1013.0 997.2
06 16.08 СЗ 3 4000 м слаб. ливневой дождь 9/8 720 м
[Cb cap Ac und]
+14.6 +12.1 85 +14 +14 1013.0 997.3 +13.0 7
09 16.08 СЗ 3 10 км 9/4 1000 м
[Cu hum Ac und Ci fib]
+17.8 +11.6 67 +18 +18 1013.0 997.5
12 16.08 СЗ 3 10 км 9/6 1000 м
[Cu Sc Ac und]
+20.5 +9.7 50 +22 +22 комфорт 1013.0 997.6
15 16.08 СВ 3 10 км 6/3 1000 м
[Cu hum Ac und]
+19.2 +8.8 51 +20 +21 1013.0 997.5
18 16.08 СЗ 1 10 км 4/4 1000 м
[Sc]
+15.2 +10.2 72 +16 +16 1014.0 998.3 +21.5
21 16.08 штиль 0 10 км 8/3 1000 м
[Sc Ac und]
+13.0 +10.7 86 +13 +13 1014.0 998.2
00 17.08 СЗ 2 10 км 9/6 1000 м
[Sc Ac und]
+14.4 +11.7 84 +14 +14 1014.0 998.3
03 17.08 СЗ 2 10 км 9/8 1000 м
[Sc Ac und]
+14.0 +10.4 79 +14 +14 1013.0 997.3
06 17.08 СЗ 3 10 км {гроза, ливн. осадки} 9/0 2000 м
[Ac und]
+16.0 +9.9 67 +16 +16 1014.0 998.3 +12.6 1
09 17.08 СЗ 3 10 км 9/9 900 м
[Sc]
+18.8 +10.6 59 +20 +20 1013.0 997.5
12 17.08 СЗ 4 10 км 9/9 600 м
[Cu Sc]
+20.4 +9.9 51 +22 +22 комфорт 1013.0 997.6
15 17.08 З 2 10 км 9/9 960 м
[Sc]
+20.2 +10.6 54 +22 +22 комфорт 1013.0 997.6
18 17.08 СЗ 1 10 км 6/0
[Ac und]
+18.2 +11.0 63 +20 +20 1014.0 998.5 +21.6
00 18.08 штиль 0 4000 м дымка 3/0
[Ci fib]
+10.8 +9.6 92 +10 +10 1014.0 998.1
03 18.08 штиль 0 4000 м дымка ясно +9.1 +8.3 95 +8 +8 1015.0 998.9
06 18.08 штиль 0 10 км 3/0 2000 м
[Ac und]
+15.4 +12.5 83 +15 +20 1014.0 998.3 +7.9
09 18.08 СЗ 4 10 км 10 баллов +22.8 +9.2 42 +24 +24 комфорт 1014.0 998.7
12 18.08 З 3 10 км 8/8 1000 м
[Cu hum]
+25.2 +7.8 33 +25 +25 комфорт 1014.0 998.8
15 18.08 З 3 10 км 3 балла +26.2 +7.7 31 +26 +28 жарко 1014.0 998.9
18 18.08 штиль 0 10 км ясно +20.3 +11.8 58 +22 +22 комфорт 1015.0 999.6 +27.2
21 18.08 штиль 0 10 км ясно +14.4 +9.8 74 +14 +14 1016.0 1000.2
00 19.08 штиль 0 10 км ясно +11.8 +8.5 80 +11 +11 1017.0 1001.1
03 19.08 штиль 0 10 км ясно +9.5 +7.3 86 +9 +9 1018.0 1001.9
06 19.08 штиль 0 10 км ясно +19.7 +14.3 71 +21 +28 комфорт 1019.0 1003.5 +9.5
09 19.08 В 1 10 км ясно +27.1 +11.1 37 +28 +43 жарко 1018.0 1002.9

 

Местоположение метеостанции Тетерев (Киевская область, Украина): широта 50.70 долгота 29.58 высота над уровнем моря 132 м.

В архиве по умолчанию представлена погода в Тетереве за последнюю неделю. Архивные данные за месяц целиком и за предыдущие месяцы, начиная с января 2011 года, Вы можете получить, выбрав интересующий диапазон дат из раскрывающегося списка и нажав кнопку "Ввод!".


*Определитесь, кто Вы:
робот инопланетянин человек

Внимание! Время в таблицах - всемирное. Для получения местного времени необходимо прибавить поправку, которая равна 2 ч.

Смотрите также архив погоды в соседних городах и на ближайших метеорологических станциях:

Погода в Вышгороде (Киевская область, Украина) (65 км)
Погода в Коростени (Житомирская область, Украина) (71 км)
Погода в Фастове (Киевская область, Украина) (73 км)
Погода в Киеве (город Киев, Украина) (78 км)
Погода в Чернобыле (Киевская область, Украина) (79 км)
Погода в Житомире (Житомирская область, Украина) (80 км)
Погода в Овруче (Житомирская область, Украина) (89 км)
Погода в Остере (Черниговская область, Украина) (95 км)
Погода в Борисполе (Киевская область, Украина) (107 км)
Погода в Белополе (Винницкая область, Украина) (109 км)

Пояснения к столбцам:

Ветер - указаны скорость ветра в м/с - средняя за 10 мин, порывы в срок и между сроками (в фигурных скобках) и направление, откуда дует ветер: С - северный, СВ - северо-восточный, В - восточный, ЮВ - юго-восточный, Ю - южный, ЮЗ - юго-западный, З - западный, СЗ - северо-западный.
Видимость - горизонтальная дальность видимости в метрах или километрах. При видимости от 1 до 10 км при отсутствии осадков обычно наблюдается дымка, при ухудшении видимости до 1 км и менее - туман. В сухую погоду видимость может ухудшаться дымом, пылью или мглою.
Явления - указаны атмосферные явления, наблюдавшиеся в срок или в последний час перед сроком; фигурными скобками обозначены явления, наблюдавшиеся между сроками (за 1-3 часа до срока); квадратными скобками обозначены град или гололедные отложения с указанием их диаметра в мм.
Облачность - указаны через наклонную черту общая и нижняя облачность в баллах и высота нижней границы облаков в метрах; квадратными скобками обозначены формы облаков: Ci - перистые, Cs - перисто-слоистые, Cc - перисто-кучевые, Ac - высококучевые, As - высокослоистые, Sc - слоисто-кучевые, Ns - слоисто-дождевые, Cu - кучевые, Cb - кучево-дождевые. Подробнее классификацию облаков см. в Атласе облаков (PDF).
T - Температура воздуха - температура, измеренная на высоте 2 м над землей.
Td - Температура точки росы - температура, при понижении до которой содержащийся в воздухе водяной пар достигнет насыщения.
f - Относительная влажность воздуха - влажноcть воздуха, измеренная на высоте 2 м над землей.
Te - Эффективная температура - температура, которую ощущает одетый по сезону человек в тени. Характеристика душности погоды. При расчете учитывается влияние влажности воздуха и скорости ветра на теплоощущения человека.
Tes - Эффективная температура на солнце - температура, которую ощущает человек, с поправкой на солнечный нагрев. Характеристика знойности погоды. Зависит от высоты солнца над горизонтом, облачности и скорости ветра. Ночью, в пасмурную погоду, а также при ветре 12 м/с и более поправка равна нулю.
P - Атмосферное давление - приведенное к уровню моря атмосферное давление.
Po - Атмосферное давление - измеренное на уровне метеостанции атмосферное давление.
Tmin - Минимальная температура - минимум температуры воздуха на высоте 2 м над землей.
Tmax - Максимальная температура - максимум температуры воздуха на высоте 2 м над землей.
R - Количество осадков - Количество выпавших осадков за период времени, мм. При наведении курсора мыши на число - период времени, за который выпало указанное количество осадков.
R24 - Количество осадков - Количество выпавших осадков за 24 часа, мм.
S - Снежный покров - Высота снежного покрова, см. При наведении курсора мыши на число - состояние снежного покрова и степень покрытия местности в баллах.